Weather History for KFBL - December, 2013

Change the Weather History Date:

Monday, December 30, 2013

  Actual Average Record
Temperature  
Mean Temperature -2 °F -  
Max Temperature 6 °F 20 °F 50 °F (2004)
Min Temperature -11 °F 4 °F -21 °F (1976)
Degree Days  
Heating Degree Days 68    
Moisture  
Dew Point -11 °F    
Average Humidity 65    
Maximum Humidity 77    
Minimum Humidity 55    
Precipitation  
Precipitation 0.00 in - - ()
Sea Level Pressure  
Sea Level Pressure 30.19 in    
Wind  
Wind Speed 2 mph (SE)    
Max Wind Speed 8 mph    
Max Gust Speed -    
Visibility 6 miles    
Events Snow    
Averages and records for this station are not official NWS values.
T = Trace of Precipitation, MM = Missing Value Source: NWS Daily Summary

Daily Weather History Graph

Daily Weather History Graph

Search for Another Location

Airport or City:

Trip Planner

Search our weather history database for the weather conditions in past years. The results will help you decide how hot, cold, wet, or windy it might be!

Date:

Astronomy

Dec. 30, 2013 Rise Set
Actual Time 7:48 AM CST 4:43 PM CST
Civil Twilight 7:15 AM CST 5:16 PM CST
Nautical Twilight 6:39 AM CST 5:52 PM CST
Astronomical Twilight 6:03 AM CST 6:28 PM CST
Moon 5:37 AM CST (12/30) 3:18 PM CST (12/30)
Length of Visible Light 10h 00m
Length of Day
8h 54m
Waning Crescent, 4% of the Moon is Illuminated
Dec 30
Waning Crescent
Jan 1
New
Jan 7
First Quarter
Jan 15
Full
Jan 23
Last Quarter

Hourly Weather History & Observations

Time (CST) Temp. Windchill Dew Point Humidity Pressure Visibility Wind Dir Wind Speed Gust Speed Precip Events Conditions
12:14 AM -11.2 °F - -20.2 °F 64% 30.27 in 10.0 mi Calm Calm - N/A   Clear
12:34 AM -11.2 °F - -20.2 °F 64% 30.27 in 10.0 mi Calm Calm - N/A   Clear
12:54 AM -11.2 °F - -18.4 °F 70% 30.26 in 10.0 mi Calm Calm - N/A   Clear
1:14 AM -9.4 °F - -18.4 °F 65% 30.25 in 10.0 mi Calm Calm - N/A   Clear
1:34 AM -11.2 °F - -20.2 °F 64% 30.25 in 10.0 mi Calm Calm - N/A   Clear
1:54 AM -11.2 °F -20.6 °F -18.4 °F 70% 30.25 in 10.0 mi SSW 3.5 mph - N/A   Clear
2:14 AM -9.4 °F - -18.4 °F 65% 30.25 in 10.0 mi Calm Calm - N/A   Clear
2:34 AM -9.4 °F - -18.4 °F 65% 30.24 in 10.0 mi Calm Calm - N/A   Clear
2:54 AM -9.4 °F - -18.4 °F 65% 30.24 in 10.0 mi Calm Calm - N/A   Clear
3:14 AM -9.4 °F - -18.4 °F 65% 30.23 in 10.0 mi Calm Calm - N/A   Clear
3:34 AM -9.4 °F - -18.4 °F 65% 30.23 in 10.0 mi Calm Calm - N/A   Clear
3:54 AM -9.4 °F - -18.4 °F 65% 30.22 in 10.0 mi Calm Calm - N/A   Clear
4:13 AM -9.4 °F - -18.4 °F 65% 30.22 in 10.0 mi Calm Calm - N/A   Clear
4:34 AM -9.4 °F - -18.4 °F 65% 30.21 in 10.0 mi Calm Calm - N/A   Clear
4:54 AM -9.4 °F - -18.4 °F 65% 30.21 in 10.0 mi Calm Calm - N/A   Clear
5:14 AM -7.6 °F - -18.4 °F 59% 30.21 in 10.0 mi Calm Calm - N/A   Clear
5:34 AM -7.6 °F - -16.6 °F 65% 30.21 in 10.0 mi Calm Calm - N/A   Clear
5:54 AM -7.6 °F - -16.6 °F 65% 30.21 in 10.0 mi Calm Calm - N/A   Clear
6:14 AM -7.6 °F -16.5 °F -16.6 °F 65% 30.21 in 10.0 mi SSE 3.5 mph - N/A   Clear
6:34 AM -7.6 °F -16.5 °F -16.6 °F 65% 30.21 in 10.0 mi SSE 3.5 mph - N/A   Clear
6:54 AM -7.6 °F - -16.6 °F 65% 30.21 in 10.0 mi Calm Calm - N/A   Clear
7:14 AM -5.8 °F -18.4 °F -16.6 °F 60% 30.19 in 10.0 mi ESE 5.8 mph - N/A   Clear
7:33 AM -5.8 °F -18.4 °F -16.6 °F 60% 30.19 in 10.0 mi SE 5.8 mph - N/A   Scattered Clouds
7:54 AM -5.8 °F -16.7 °F -16.6 °F 60% 30.19 in 10.0 mi SSE 4.6 mph - N/A   Scattered Clouds
8:14 AM -4.0 °F -12.4 °F -14.8 °F 60% 30.20 in 10.0 mi SSE 3.5 mph - N/A   Mostly Cloudy
8:33 AM -4.0 °F -14.6 °F -14.8 °F 60% 30.20 in 10.0 mi SE 4.6 mph - N/A   Overcast
8:54 AM -2.2 °F -12.5 °F -14.8 °F 55% 30.21 in 5.0 mi SE 4.6 mph - N/A   Haze
9:14 AM -2.2 °F - -13.0 °F 60% 30.22 in 3.0 mi Calm Calm - N/A Snow Light Snow
9:34 AM -0.4 °F -12.0 °F -13.0 °F 55% 30.23 in 5.0 mi SSE 5.8 mph - N/A Snow Light Snow
9:54 AM -0.4 °F -10.4 °F -11.2 °F 60% 30.23 in 1.5 mi SSE 4.6 mph - N/A Snow Light Snow
10:14 AM -0.4 °F -12.0 °F -11.2 °F 60% 30.23 in 2.0 mi South 5.8 mph - N/A Snow Light Snow
10:34 AM 1.4 °F -12.5 °F -9.4 °F 61% 30.22 in 1.5 mi SSE 8.1 mph - N/A Snow Light Snow
10:54 AM 1.4 °F -9.9 °F -9.4 °F 61% 30.22 in 2.0 mi SSE 5.8 mph - N/A Snow Light Snow
11:14 AM 3.2 °F -9.1 °F -7.6 °F 61% 30.20 in 2.5 mi SSE 6.9 mph - N/A Snow Light Snow
11:32 AM 3.2 °F -9.1 °F -7.6 °F 61% 30.19 in 1.8 mi SE 6.9 mph - N/A Snow Light Snow
11:53 AM 3.2 °F -9.1 °F -5.8 °F 66% 30.17 in 1.0 mi SSE 6.9 mph - N/A Snow Light Snow
12:14 PM 3.2 °F -9.1 °F -5.8 °F 66% 30.15 in 1.2 mi SE 6.9 mph - N/A Snow Light Snow
12:31 PM 5.0 °F -5.6 °F -5.8 °F 61% 30.14 in 1.8 mi ESE 5.8 mph - N/A Snow Light Snow
12:41 PM 5.0 °F -2.1 °F -5.8 °F 61% 30.14 in 1.5 mi ESE 3.5 mph - N/A   Overcast
1:01 PM 5.0 °F - -5.8 °F 61% 30.13 in 1.2 mi ESE 2.3 mph - N/A   Overcast
1:21 PM 6.8 °F -0.1 °F -4.0 °F 61% 30.12 in 0.8 mi East 3.5 mph - N/A   Overcast
1:41 PM 6.8 °F -0.1 °F -4.0 °F 61% 30.13 in 0.5 mi East 3.5 mph - N/A   Overcast
2:01 PM 6.8 °F -0.1 °F -4.0 °F 61% 30.12 in 1.0 mi East 3.5 mph - N/A   Overcast
2:21 PM 6.8 °F -3.5 °F -4.0 °F 61% 30.13 in 0.8 mi ENE 5.8 mph - N/A   Overcast
2:41 PM 6.8 °F -0.1 °F -4.0 °F 61% 30.13 in 1.2 mi ENE 3.5 mph - N/A   Overcast
3:01 PM 6.8 °F -2.0 °F -4.0 °F 61% 30.14 in 1.0 mi ENE 4.6 mph - N/A   Overcast
3:21 PM 6.8 °F -2.0 °F -2.2 °F 67% 30.14 in 0.8 mi ENE 4.6 mph - N/A   Overcast
3:41 PM 6.8 °F -4.8 °F -4.0 °F 61% 30.13 in 0.8 mi East 6.9 mph - N/A   Overcast
4:01 PM 6.8 °F -3.5 °F -2.2 °F 67% 30.13 in 1.8 mi East 5.8 mph - N/A   Overcast
4:21 PM 5.0 °F -5.6 °F -4.0 °F 66% 30.14 in 4.0 mi ENE 5.8 mph - N/A   Overcast
4:41 PM 5.0 °F -4.1 °F -4.0 °F 66% 30.15 in 3.0 mi ENE 4.6 mph - N/A   Overcast
5:01 PM 6.8 °F -0.1 °F -2.2 °F 67% 30.15 in 3.0 mi ESE 3.5 mph - N/A   Overcast
5:21 PM 6.8 °F - -2.2 °F 67% 30.15 in 2.0 mi ESE 2.3 mph - N/A   Overcast
5:41 PM 6.8 °F - -2.2 °F 67% 30.16 in 1.8 mi SE 2.3 mph - N/A   Overcast
6:01 PM 5.0 °F -5.6 °F -4.0 °F 66% 30.15 in 2.0 mi SE 5.8 mph - N/A   Overcast
6:21 PM 5.0 °F - -4.0 °F 66% 30.17 in 2.5 mi SSW 1.2 mph - N/A   Overcast
6:41 PM 3.2 °F - -5.8 °F 66% 30.16 in 4.0 mi SSE 1.2 mph - N/A   Overcast
7:01 PM 1.4 °F - -5.8 °F 72% 30.17 in 5.0 mi Calm Calm - N/A   Overcast
7:21 PM -2.2 °F - -9.4 °F 71% 30.19 in 7.0 mi NW 1.2 mph - N/A   Overcast
7:41 PM -4.0 °F - -11.2 °F 71% 30.19 in 10.0 mi North 1.2 mph - N/A   Scattered Clouds
8:01 PM -5.8 °F - -11.2 °F 77% 30.18 in 7.0 mi NNE 1.2 mph - N/A   Mostly Cloudy
8:21 PM -5.8 °F - -14.8 °F 65% 30.18 in 10.0 mi Calm Calm - N/A   Mostly Cloudy
8:41 PM -9.4 °F - -16.6 °F 71% 30.18 in 10.0 mi Calm Calm - N/A   Mostly Cloudy
9:01 PM -5.8 °F - -11.2 °F 77% 30.18 in 7.0 mi NW 1.2 mph - N/A   Overcast
9:21 PM -2.2 °F - -9.4 °F 71% 30.18 in 7.0 mi WNW 1.2 mph - N/A   Overcast
9:41 PM -0.4 °F - -7.6 °F 72% 30.18 in 10.0 mi WSW 1.2 mph - N/A   Overcast
10:01 PM 1.4 °F - -7.6 °F 66% 30.18 in 10.0 mi Calm Calm - N/A   Overcast
10:21 PM -0.4 °F - -7.6 °F 72% 30.18 in 10.0 mi SW 2.3 mph - N/A   Overcast
10:41 PM -0.4 °F - -9.4 °F 66% 30.18 in 10.0 mi SW 1.2 mph - N/A   Scattered Clouds
11:01 PM -5.8 °F - -14.8 °F 65% 30.18 in 10.0 mi Calm Calm - N/A   Clear
11:41 PM -7.6 °F - -16.6 °F 65% 30.18 in 10.0 mi SW 1.2 mph - N/A   Clear